TimeEST,TemperatureF,Dew PointF,Humidity,Sea Level PressureIn,VisibilityMPH,Wind Direction,Wind SpeedMPH,Gust SpeedMPH,PrecipitationIn,Events,Conditions,WindDirDegrees,DateUTC
12:56 AM,21.9,3.9,46,30.29,10.0,Calm,Calm,-,N/A,,Clear,0,2013-01-23 05:56:00
1:56 AM,21.9,3.0,44,30.31,10.0,NW,3.5,-,N/A,,Clear,310,2013-01-23 06:56:00
2:56 AM,21.9,1.0,40,30.32,10.0,Calm,Calm,-,N/A,,Clear,0,2013-01-23 07:56:00
3:56 AM,19.9,3.0,48,30.32,10.0,Calm,Calm,-,N/A,,Clear,0,2013-01-23 08:56:00
4:56 AM,19.9,3.9,50,30.33,10.0,WNW,3.5,-,N/A,,Clear,300,2013-01-23 09:56:00
5:56 AM,19.0,5.0,54,30.34,10.0,Calm,Calm,-,N/A,,Clear,0,2013-01-23 10:56:00
6:56 AM,18.0,5.0,57,30.36,10.0,Calm,Calm,-,N/A,,Clear,0,2013-01-23 11:56:00
7:56 AM,19.0,6.1,57,30.36,10.0,Calm,Calm,-,N/A,,Clear,0,2013-01-23 12:56:00
8:56 AM,26.1,3.9,39,30.37,10.0,Calm,Calm,-,N/A,,Clear,0,2013-01-23 13:56:00
10:56 AM,30.9,1.0,28,30.38,10.0,West,5.8,-,N/A,,Clear,280,2013-01-23 15:56:00
11:56 AM,34.0,3.0,27,30.33,10.0,West,5.8,-,N/A,,Clear,260,2013-01-23 16:56:00
12:56 PM,37.0,7.0,29,30.28,10.0,Variable,5.8,-,N/A,,Clear,0,2013-01-23 17:56:00
1:56 PM,37.9,9.0,30,30.25,10.0,Variable,4.6,-,N/A,,Clear,0,2013-01-23 18:56:00
2:56 PM,37.9,9.0,30,30.23,10.0,Variable,5.8,-,N/A,,Scattered Clouds,0,2013-01-23 19:56:00
3:56 PM,39.9,9.0,28,30.21,10.0,Variable,6.9,-,N/A,,Clear,0,2013-01-23 20:56:00
4:56 PM,39.0,10.0,30,30.21,10.0,Variable,5.8,-,N/A,,Clear,0,2013-01-23 21:56:00
5:56 PM,36.0,12.0,37,30.20,10.0,Calm,Calm,-,N/A,,Clear,0,2013-01-23 22:56:00
6:56 PM,32.0,12.0,44,30.18,10.0,Calm,Calm,-,N/A,,Clear,0,2013-01-23 23:56:00
7:56 PM,30.0,16.0,56,30.16,10.0,Calm,Calm,-,N/A,,Clear,0,2013-01-24 00:56:00
8:56 PM,30.0,14.0,51,30.14,10.0,Calm,Calm,-,N/A,,Clear,0,2013-01-24 01:56:00
9:56 PM,30.9,14.0,50,30.12,10.0,Calm,Calm,-,N/A,,Clear,0,2013-01-24 02:56:00
10:56 PM,28.9,15.1,56,30.10,10.0,Calm,Calm,-,N/A,,Clear,0,2013-01-24 03:56:00
11:56 PM,28.9,15.1,56,30.06,10.0,Calm,Calm,-,N/A,,Clear,0,2013-01-24 04:56:00